Weather History for Chanute, KS

Change the Weather History Date:

Thursday, December 12, 2013

  Actual Average Record
Temperature  
Mean Temperature 28 °F 35 °F  
Max Temperature 46 °F 44 °F 67 °F (1925)
Min Temperature 10 °F 26 °F -6 °F (1932)
Degree Days  
Heating Degree Days 37 30  
Month to date heating degree days 439 338  
Since 1 July heating degree days 1359 1190  
Cooling Degree Days 0 0  
Month to date cooling degree days 0 0  
Year to date cooling degree days 1560 1532  
Moisture  
Dew Point 15 °F    
Average Humidity 58    
Maximum Humidity 85    
Minimum Humidity 30    
Precipitation  
Precipitation 0.00 in 0.05 in 1.16 in (1923)
Month to date precipitation T 0.75  
Year to date precipitation 47.59 41.07  
Sea Level Pressure  
Sea Level Pressure 30.45 in    
Wind  
Wind Speed 10 mph (South)    
Max Wind Speed 21 mph    
Max Gust Speed 25 mph    
Visibility 10 miles    
Events      
T = Trace of Precipitation, MM = Missing Value Source: NWS Daily Summary

Daily Weather History Graph

Daily Weather History Graph

Search for Another Location

Airport:

Trip Planner

Search our weather history database for the weather conditions in past years. The results will help you decide how hot, cold, wet, or windy it might be!

Date:

Astronomy

Dec. 12, 2013 Rise Set
Actual Time 7:27 AM CST 5:03 PM CST
Civil Twilight 6:58 AM CST 5:33 PM CST
Nautical Twilight 6:25 AM CST 6:05 PM CST
Astronomical Twilight 5:53 AM CST 6:37 PM CST
Moon 2:08 PM CST (12/12) 2:55 AM CST (12/12)
Length of Visible Light 10h 34m
Length of Day
9h 35m
Waxing Gibbous, 80% of the Moon is Illuminated
Dec 12
Waxing Gibbous
Dec 17
Full
Dec 25
Last Quarter
Jan 1
New
Jan 7
First Quarter

Hourly Weather History & Observations

Time (CST) Temp. Windchill Dew Point Humidity Pressure Visibility Wind Dir Wind Speed Gust Speed Precip Events Conditions
12:52 AM 12.9 °F - 6.1 °F 74% 30.63 in 10.0 mi Calm Calm - N/A   Clear
1:52 AM 12.0 °F - 6.1 °F 77% 30.62 in 10.0 mi Calm Calm - N/A   Clear
2:52 AM 10.9 °F 2.9 °F 5.0 °F 77% 30.61 in 10.0 mi SSE 4.6 mph - N/A   Clear
3:52 AM 12.0 °F 4.1 °F 6.1 °F 77% 30.61 in 10.0 mi South 4.6 mph - N/A   Clear
4:52 AM 12.9 °F 0.7 °F 5.0 °F 71% 30.57 in 10.0 mi SSW 9.2 mph - N/A   Clear
5:52 AM 12.9 °F 1.6 °F 6.1 °F 74% 30.56 in 10.0 mi South 8.1 mph - N/A   Clear
6:52 AM 12.9 °F 2.6 °F 6.1 °F 74% 30.56 in 10.0 mi South 6.9 mph - N/A   Clear
7:52 AM 17.1 °F 7.6 °F 10.0 °F 74% 30.55 in 10.0 mi South 6.9 mph - N/A   Clear
8:52 AM 24.1 °F 13.7 °F 15.1 °F 69% 30.56 in 10.0 mi SSW 10.4 mph - N/A   Clear
9:52 AM 30.0 °F 19.1 °F 15.1 °F 54% 30.55 in 10.0 mi SSW 15.0 mph - N/A   Clear
10:52 AM 35.1 °F 25.5 °F 15.1 °F 44% 30.54 in 10.0 mi SSW 15.0 mph - N/A   Clear
11:52 AM 39.0 °F 30.6 °F 15.1 °F 38% 30.50 in 10.0 mi SSW 15.0 mph - N/A   Clear
12:52 PM 42.1 °F 33.3 °F 14.0 °F 32% 30.44 in 10.0 mi SSW 19.6 mph - N/A   Clear
1:52 PM 43.0 °F 35.7 °F 16.0 °F 34% 30.43 in 10.0 mi SW 15.0 mph - N/A   Clear
2:52 PM 46.0 °F 39.6 °F 17.1 °F 31% 30.38 in 10.0 mi SSW 15.0 mph - N/A   Clear
3:52 PM 44.1 °F 37.4 °F 19.0 °F 37% 30.35 in 10.0 mi South 13.8 mph - N/A   Clear
4:52 PM 39.0 °F 33.4 °F 21.0 °F 49% 30.35 in 10.0 mi South 8.1 mph - N/A   Clear
5:52 PM 33.1 °F 25.5 °F 21.0 °F 61% 30.34 in 10.0 mi South 9.2 mph - N/A   Clear
6:52 PM 30.9 °F 22.8 °F 23.0 °F 72% 30.33 in 10.0 mi South 9.2 mph - N/A   Clear
7:52 PM 30.9 °F 21.7 °F 24.1 °F 76% 30.32 in 10.0 mi South 11.5 mph - N/A   Clear
8:52 PM 30.0 °F 20.5 °F 24.1 °F 79% 30.29 in 10.0 mi South 11.5 mph - N/A   Clear
9:52 PM 28.9 °F 20.4 °F 23.0 °F 78% 30.27 in 10.0 mi South 9.2 mph - N/A   Clear
10:52 PM 28.9 °F 19.8 °F 24.1 °F 82% 30.26 in 10.0 mi South 10.4 mph - N/A   Clear
11:52 PM 27.0 °F 18.7 °F 23.0 °F 85% 30.22 in 9.0 mi South 8.1 mph - N/A   Clear